This demonstration page uses our WeatherBlox Daily Observations layout. Learn more.

Left ArrowRight Arrow

Hourly Observations for April 5, 2021

Temp ( °F °C ) Dew Point ( °F °C ) Humidity (%) Winds ( mph kmh ) Pressure ( in mb ) Visibility ( mi km ) Precip ( " mm )
12:59 am 00:59 Clear 49 9.4 38 3.3 66 66 WSW 3 6 30.04 1017 10 16 0.00 0.00
1:59 am 01:59 Clear 51 10.6 43 6.1 74 74 W 6 9 30.04 1017 10 16 0.00 0.00
2:59 am 02:59 Clear 55 12.8 41 5 59 59 NNW 10 17 30.04 1017 10 16 0.00 0.00
3:59 am 03:59 Clear 57 13.9 38 3.3 49 49 N 16 26 30.06 1018 10 16 0.00 0.00
4:59 am 04:59 Clear 53 11.7 42 5.6 66 66 N 10 17 30.08 1019 10 16 0.00 0.00
5:59 am 05:59 Clear 53 11.7 39 3.9 59 59 NNE 9 15 30.10 1019 10 16 0.00 0.00
6:59 am 06:59 Sunny 53 11.7 39 3.9 59 59 N 10 17 30.13 1020 10 16 0.00 0.00
7:59 am 07:59 Mostly Sunny 55 12.8 38 3.3 53 53 N 8 13 30.15 1021 10 16 0.00 0.00
8:59 am 08:59 Mostly Sunny 58 14.4 35 1.7 42 42 N 8 13 30.15 1021 10 16 0.00 0.00
9:59 am 09:59 Sunny 59 15 29 -1.7 32 32 N 9 15 30.16 1021 10 16 0.00 0.00
10:59 am 10:59 Sunny 61 16.1 30 -1.1 31 31 N 9 15 30.16 1021 10 16 0.00 0.00
11:59 am 11:59 Sunny 63 17.2 30 -1.1 29 29 NNE 6 9 30.14 1021 10 16 0.00 0.00
12:59 pm 12:59 Sunny 63 17.2 31 -0.6 30 30 VRB 3 6 30.11 1020 10 16 0.00 0.00
1:59 pm 13:59 Sunny 65 18.3 30 -1.1 27 27 WNW 12 19 30.09 1019 10 16 0.00 0.00
2:59 pm 14:59 Sunny 68 20 29 -1.7 23 23 WNW 14 22 30.06 1018 10 16 0.00 0.00
3:59 pm 15:59 Mostly Sunny 70 21.1 31 -0.6 23 23 W 13 20 30.03 1017 10 16 0.00 0.00
4:59 pm 16:59 Mostly Sunny 71 21.7 29 -1.7 21 21 WNW 12 19 30.02 1017 10 16 0.00 0.00
5:59 pm 17:59 Partly Cloudy 71 21.7 31 -0.6 23 23 W 9 15 30.01 1016 10 16 0.00 0.00
6:59 pm 18:59 Partly Cloudy 68 20 32 0 26 26 W 7 11 30.01 1016 10 16 0.00 0.00
7:59 pm 19:59 Partly Cloudy 60 15.6 37 2.8 42 42 S 3 6 30.01 1016 10 16 0.00 0.00
8:59 pm 20:59 Partly Cloudy 57 13.9 37 2.8 47 47 Calm 30.01 1016 10 16 0.00 0.00
9:59 pm 21:59 Mostly Cloudy 58 14.4 38 3.3 48 48 S 7 11 30.02 1017 10 16 0.00 0.00
10:59 pm 22:59 Mostly Cloudy 59 15 38 3.3 46 46 S 5 7 30.01 1016 10 16 0.00 0.00
11:59 pm 23:59 Mostly Cloudy 60 15.6 38 3.3 44 44 SSW 3 6 30.01 1016 10 16 0.00 0.00

Powered by AerisWeather